Date String (YYYY-MM-DD hh:mm:ss) UTC,Instrument flags,absolute air pressure of the measurement (hPa),sample flow rate (lpm),inlet stack bypass flow (lpm),air temperature of the measurement (°C),ambient temperature measured by the external sensor (°C),aerosol sample conditioner tube jacket temperature (°C),OPC LED temperature (°C),internal box temperature (°C),relative humidity of the measurement (%),span deviation,mass concentration of particles derived from Lorenz-Mie calculation of OPC scattering (μg/m³),mass concentration of particles derived from Lorenz-Mie calculation of OPC scattering (μg/m³),mass concentration of particles derived from Lorenz-Mie calculation of OPC scattering (μg/m³)
DateTimeUTC,F1_M11,P_M11,Q1_M11,Q2_M11,T1_M11,T2_M11,T3_M11,T4_M11,T5_M11,U1_M11,ZSPAN_M11,X2_M11,X0_M11,X1_M11
2023-09-02 19:00:00,SystemResetWarning,0833.7,5.00,000.00,027.6,025.5,000.0,035.8,029.2,28.4,0000.0,0004.32,0010.73,0003.57
2023-09-02 19:01:00,SystemResetWarning,0833.7,5.01,000.00,027.6,025.9,000.0,035.8,029.3,28.3,0000.0,0004.36,0010.93,0003.57
2023-09-02 19:02:00,SystemResetWarning,0833.7,4.99,000.00,027.7,026.3,000.0,035.9,029.5,27.6,0000.0,0004.36,0010.93,0003.58
2023-09-02 19:03:00,SystemResetWarning,0833.7,4.98,000.00,027.7,026.1,000.0,035.9,029.4,28.0,0000.0,0004.39,0011.66,0003.58
2023-09-02 19:04:00,SystemResetWarning,0833.7,5.00,000.00,027.6,024.8,000.0,035.8,028.9,27.7,0000.0,0004.40,0012.02,0003.59
2023-09-02 19:05:00,SystemResetWarning,0833.7,5.00,000.00,027.5,024.3,000.0,035.7,028.8,28.8,0000.0,0004.37,0012.23,0003.59
2023-09-02 19:06:00,SystemResetWarning,0833.7,5.01,000.00,027.5,024.5,000.0,035.7,028.9,28.7,0000.0,0004.37,0012.31,0003.58
2023-09-02 19:07:00,SystemResetWarning,0833.7,5.00,000.00,027.5,024.9,000.0,035.7,028.9,29.2,0000.0,0004.36,0012.30,0003.58
2023-09-02 19:08:00,SystemResetWarning,0833.6,5.00,000.00,027.5,025.3,000.0,035.8,029.1,29.1,0000.0,0004.34,0012.11,0003.58
2023-09-02 19:09:00,SystemResetWarning,0833.6,5.00,000.00,027.6,025.8,000.0,035.8,029.3,29.1,0000.0,0004.36,0012.25,0003.58
2023-09-02 19:10:00,SystemResetWarning,0833.7,5.00,000.00,027.6,026.2,000.0,035.8,029.4,28.2,0000.0,0004.39,0012.39,0003.58
2023-09-02 19:11:00,SystemResetWarning,0833.6,5.00,000.00,027.7,026.4,000.0,035.9,029.5,28.2,0000.0,0004.42,0012.47,0003.58
2023-09-02 19:12:00,SystemResetWarning,0833.7,4.98,000.00,027.7,025.5,000.0,035.8,029.2,28.7,0000.0,0004.41,0012.72,0003.58
2023-09-02 19:13:00,SystemResetWarning,0833.7,5.01,000.00,027.5,024.4,000.0,035.8,028.8,29.6,0000.0,0004.42,0012.92,0003.58
2023-09-02 19:14:00,SystemResetWarning,0833.7,5.02,000.00,027.5,024.5,000.0,035.7,028.8,29.4,0000.0,0004.41,0012.35,0003.58
2023-09-02 19:15:00,SystemResetWarning,0833.7,4.99,000.00,027.5,024.8,000.0,035.7,028.8,28.3,0000.0,0004.46,0012.22,0003.59
2023-09-02 19:16:00,SystemResetWarning,0833.7,5.00,000.00,027.5,025.2,000.0,035.8,029.0,28.0,0000.0,0004.47,0012.30,0003.58
2023-09-02 19:17:00,SystemResetWarning,0833.7,5.00,000.00,027.5,025.7,000.0,035.8,029.2,28.0,0000.0,0004.46,0011.71,0003.59
2023-09-02 19:18:00,SystemResetWarning,0833.7,5.01,000.00,027.6,026.1,000.0,035.8,029.3,28.4,0000.0,0004.50,0012.34,0003.59
2023-09-02 19:19:00,SystemResetWarning,0833.6,5.00,000.00,027.7,026.4,000.0,035.8,029.5,28.4,0000.0,0004.52,0012.78,0003.60
2023-09-02 19:20:00,SystemResetWarning,0833.6,4.99,000.00,027.7,026.3,000.0,035.8,029.4,28.4,0000.0,0004.51,0012.78,0003.61
2023-09-02 19:21:00,SystemResetWarning,0833.5,4.99,000.00,027.6,025.1,000.0,035.8,029.0,28.5,0000.1,0004.47,0012.59,0003.62
2023-09-02 19:22:00,SystemResetWarning,0833.5,5.00,000.00,027.5,024.4,000.0,035.7,028.9,28.7,0000.0,0004.45,0012.35,0003.63
2023-09-02 19:23:00,SystemResetWarning,0833.5,5.02,000.00,027.5,024.7,000.0,035.7,028.9,28.9,0000.0,0004.46,0011.80,0003.63
2023-09-02 19:24:00,SystemResetWarning,0833.5,5.00,000.00,027.5,025.0,000.0,035.7,029.0,29.8,0000.0,0004.48,0012.10,0003.63
2023-09-02 19:25:00,SystemResetWarning,0833.5,5.00,000.00,027.5,025.5,000.0,035.8,029.1,29.5,0000.0,0004.50,0012.51,0003.63
2023-09-02 19:26:00,SystemResetWarning,0833.5,5.00,000.00,027.6,025.9,000.0,035.8,029.3,29.6,0000.0,0004.42,0012.17,0003.62
2023-09-02 19:27:00,SystemResetWarning,0833.6,5.00,000.00,027.6,026.3,000.0,035.8,029.4,29.6,0000.0,0004.42,0011.85,0003.62
2023-09-02 19:28:00,SystemResetWarning,0833.6,4.99,000.00,027.7,026.2,000.0,035.8,029.4,28.9,0000.0,0004.40,0011.80,0003.61
2023-09-02 19:29:00,SystemResetWarning,0833.6,4.99,000.00,027.6,025.0,000.0,035.8,029.0,28.9,0000.0,0004.35,0011.59,0003.61
2023-09-02 19:30:00,SystemResetWarning,0833.5,5.00,000.00,027.5,024.4,000.0,035.7,028.8,28.8,0000.0,0004.37,0011.23,0003.61
2023-09-02 19:31:00,SystemResetWarning,0833.5,5.01,000.00,027.5,024.6,000.0,035.7,028.9,29.2,0000.0,0004.40,0011.37,0003.61
2023-09-02 19:32:00,SystemResetWarning,0833.5,5.00,000.00,027.5,025.0,000.0,035.7,029.0,29.5,0000.0,0004.42,0012.10,0003.61
2023-09-02 19:33:00,SystemResetWarning,0833.6,5.00,000.00,027.5,025.4,000.0,035.8,029.1,30.1,0000.0,0004.39,0013.10,0003.60
2023-09-02 19:34:00,SystemResetWarning,0833.5,4.99,000.00,027.6,025.9,000.0,035.8,029.3,30.7,0000.0,0004.38,0013.04,0003.60
2023-09-02 19:35:00,SystemResetWarning,0833.5,4.99,000.00,027.6,026.3,000.0,035.8,029.4,30.8,0000.0,0004.32,0012.51,0003.60
2023-09-02 19:36:00,SystemResetWarning,0833.5,5.00,000.00,027.7,026.2,000.0,035.8,029.4,31.2,0000.0,0004.33,0011.84,0003.61
2023-09-02 19:37:00,SystemResetWarning,0833.5,4.99,000.00,027.6,024.9,000.0,035.8,028.9,31.3,0000.0,0004.39,0012.00,0003.62
2023-09-02 19:38:00,SystemResetWarning,0833.4,5.01,000.00,027.5,024.3,000.0,035.7,028.8,31.4,0000.0,0004.42,0012.81,0003.63
2023-09-02 19:39:00,SystemResetWarning,0833.4,5.01,000.00,027.5,024.6,000.0,035.7,028.9,31.1,0000.0,0004.48,0012.64,0003.65
2023-09-02 19:40:00,SystemResetWarning,0833.5,5.00,000.00,027.5,024.9,000.0,035.7,029.0,31.6,0000.0,0004.49,0012.09,0003.66
2023-09-02 19:41:00,SystemResetWarning,0833.5,5.00,000.00,027.5,025.4,000.0,035.7,029.1,30.2,0000.0,0004.47,0012.27,0003.66
2023-09-02 19:42:00,SystemResetWarning,0833.5,5.00,000.00,027.5,025.8,000.0,035.8,029.3,29.4,0000.0,0004.47,0012.13,0003.66
2023-09-02 19:43:00,SystemResetWarning,0833.5,5.00,000.00,027.6,026.2,000.0,035.8,029.4,29.2,0000.0,0004.47,0011.51,0003.65
2023-09-02 19:44:00,SystemResetWarning,0833.5,4.99,000.00,027.7,026.5,000.0,035.8,029.5,29.6,0000.0,0004.47,0010.72,0003.66
2023-09-02 19:45:00,SystemResetWarning,0833.5,4.98,000.00,027.7,025.7,000.0,035.8,029.2,30.9,0000.0,0004.49,0011.35,0003.67
2023-09-02 19:46:00,SystemResetWarning,0833.4,5.01,000.00,027.6,024.6,000.0,035.7,028.8,31.3,0000.0,0004.52,0013.29,0003.67
2023-09-02 19:47:00,SystemResetWarning,0833.4,5.02,000.00,027.5,024.5,000.0,035.7,028.8,31.2,0000.0,0004.51,0013.59,0003.67
2023-09-02 19:48:00,SystemResetWarning,0833.4,4.99,000.00,027.5,024.8,000.0,035.7,028.9,31.0,0000.0,0004.47,0013.49,0003.67
2023-09-02 19:49:00,SystemResetWarning,0833.4,5.00,000.00,027.5,025.3,000.0,035.7,029.1,31.0,0000.0,0004.45,0013.05,0003.66
2023-09-02 19:50:00,SystemResetWarning,0833.4,5.01,000.00,027.5,025.7,000.0,035.8,029.2,31.1,0000.0,0004.44,0012.89,0003.66
2023-09-02 19:51:00,SystemResetWarning,0833.4,5.00,000.00,027.6,026.1,000.0,035.8,029.4,30.6,0000.0,0004.46,0012.96,0003.66
2023-09-02 19:52:00,SystemResetWarning,0833.4,4.99,000.00,027.7,026.4,000.0,035.8,029.5,30.3,0000.0,0004.46,0012.65,0003.66
2023-09-02 19:53:00,SystemResetWarning,0833.4,4.98,000.00,027.7,025.6,000.0,035.8,029.2,30.2,0000.0,0004.42,0012.29,0003.66
2023-09-02 19:54:00,SystemResetWarning,0833.4,5.01,000.00,027.6,024.5,000.0,035.7,028.8,30.5,0000.0,0004.43,0012.52,0003.67
2023-09-02 19:55:00,SystemResetWarning,0833.3,5.01,000.00,027.5,024.4,000.0,035.7,028.9,30.8,0000.0,0004.44,0012.82,0003.67
2023-09-02 19:56:00,SystemResetWarning,0833.3,5.00,000.00,027.5,024.7,000.0,035.7,028.9,31.1,0000.0,0004.45,0012.23,0003.67
2023-09-02 19:57:00,SystemResetWarning,0833.3,5.00,000.00,027.5,025.1,000.0,035.7,029.0,31.2,0000.0,0004.45,0010.53,0003.67
2023-09-02 19:58:00,SystemResetWarning,0833.3,5.00,000.00,027.5,025.6,000.0,035.7,029.2,31.5,0000.0,0004.49,0010.48,0003.68
2023-09-02 19:59:00,SystemResetWarning,0833.3,5.00,000.00,027.6,026.0,000.0,035.8,029.4,32.3,0000.0,0004.52,0010.50,0003.68
